Wetbulb
48.58 43.33 39.40 42.20 42.93 42.44 42.15 40.22 38.87 41.74 44.68 42.41 41.63 41.20 43.70 46.24 46.14 45.50 46.14 47.32 48.31 48.94 52.71 61.45 61.85 61.38 61.77 59.82 61.59 62.68 63.11 64.07 66.58 66.21 64.27 63.78 63.46 66.59 67.88 73.69 74.72 74.61 74.36 73.18
45.06 40.27 45.18 46.34 45.44 42.56 41.53 39.82 39.50 42.94 45.53 42.76 41.31 41.34 44.11 45.25 45.46 46.52 46.70 47.01 47.21 48.43 50.39 59.65 59.83 62.15 59.91 59.27 60.35 62.15 63.89 65.84 65.27 65.94 65.34 62.55 62.19 67.27 69.63 73.69 72.63 74.00 73.17 69.31
41.63 44.11 48.18 44.93 42.94 41.36 40.57 39.26 39.89 40.03 44.43 45.23 42.92 39.63 42.57 46.05 46.41 46.81 47.18 47.69 48.20 48.38 49.60 52.22 60.89 60.36 60.69 58.30 61.10 62.77 63.65 66.17 62.53 63.52 63.02 62.19 61.23 65.62 61.04 70.64 72.27 71.80 72.24 71.18
43.90 47.48 45.48 42.80 41.30 41.96 37.79 43.92 43.37 42.52 39.86 34.47 42.32 32.46 40.49 44.39 45.12 46.17 46.50 45.97 47.10 48.62 49.92 52.54 58.58 58.31 58.54 58.90 61.60 62.19 62.51 66.11 67.27 69.01 66.47 63.92 66.40 67.38 69.21 69.65 71.30 71.16 68.50 64.09
41.96 44.44 43.77 40.93 41.43 43.67 40.96 45.13 42.83 42.32 38.36 35.92 38.48 33.46 37.62 43.16 43.63 44.96 49.12 50.83 50.98 48.06 49.09 52.78 59.09 60.11 60.26 60.80 61.74 62.68 66.60 68.38 70.06 69.52 69.90 68.49 67.57 67.97 69.25 69.21 68.08 69.04 71.42 71.58
45.14 48.86 45.95 44.08 45.38 45.03 45.78 42.80 41.39 40.32 36.35 30.09 36.26 35.48 35.71 39.02 43.15 47.32 50.40 49.95 52.35 52.24 53.80 55.35 56.59 60.11 57.07 58.34 58.69 58.66 66.60 67.56 69.07 70.56 70.03 68.65 65.62 65.51 63.66 65.49 65.50 67.66 67.97 67.21
43.57 43.73 46.37 46.65 42.44 44.67 42.43 36.92 28.60 26.89 28.09 29.28 39.03 36.84 38.23 45.29 49.29 49.95 50.10 49.85 50.82 52.64 52.70 53.37 54.68 55.91 57.56 58.02 61.52 61.34 62.19 65.35 63.55 62.06 62.09 60.77 62.33 63.12 61.30 61.22 61.67 61.57 62.58 62.54
36.47 35.25 42.93 46.59 43.22 40.23 39.84 37.84 29.50 24.51 27.73 32.70 41.25 34.97 38.02 48.73 50.11 51.04 51.11 51.43 52.79 52.10 52.69 53.26 55.78 57.03 58.02 58.60 60.12 61.59 61.73 60.38 60.03 59.36 58.64 58.99 59.30 59.30 58.54 57.74 58.73 58.72 57.89 58.94
37.19 37.10 46.51 46.59 45.96 44.37 40.26 37.04 39.91 34.31 37.92 33.07 36.11 41.94 46.81 48.75 47.87 48.97 50.20 51.83 52.15 54.38 55.15 55.90 56.15 56.46 56.96 56.88 57.32 57.80 57.67 56.79 56.66 57.59 57.39 56.71 56.23 56.60 56.77 56.79 57.24 57.58 58.13 58.20
42.85 37.00 45.43 45.30 45.42 44.95 42.67 43.32 35.40 33.40 28.55 25.91 33.43 38.93 39.70 43.07 43.73 46.60 48.64 50.12 51.50 52.75 53.47 54.07 54.95 55.27 56.36 57.06 57.44 57.29 56.69 57.21 55.34 54.25 54.85 54.32 53.75 54.28 54.37 54.22 54.18 53.80 54.06 54.25
45.57 40.29 40.93 44.76 42.78 39.73 39.62 38.65 38.86 38.15 36.39 28.02 27.68 35.53 46.24 47.49 49.21 46.56 49.36 50.52 49.91 49.81 50.42 51.58 52.97 53.33 52.71 54.30 55.07 55.52 55.26 53.78 53.38 53.09 51.91 52.14 52.44 53.05 53.33 53.23 53.37 53.69 53.73 54.09
45.66 41.12 35.86 38.32 45.23 47.95 43.56 40.44 40.76 33.65 33.88 37.49 33.68 33.95 47.43 48.34 48.60 49.41 52.23 52.00 49.93 49.81 49.92 50.43 50.76 51.01 50.95 50.36 50.76 51.92 51.92 51.55 51.35 51.74 52.46 51.30 51.64 52.21 52.17 52.19 52.38 53.13 52.06 52.71
45.10 39.96 34.01 35.88 41.35 45.63 40.70 42.67 42.60 42.89 40.05 36.20 33.33 35.72 48.81 49.23 48.53 50.11 50.67 50.88 51.33 50.46 49.22 49.16 49.16 48.94 49.22 49.72 50.39 49.43 49.55 49.47 49.73 50.48 49.80 50.55 50.69 49.68 49.84 51.02 51.40 51.66 50.58 49.92
47.79 40.55 37.61 32.30 37.99 41.67 39.30 41.98 43.56 40.31 35.08 37.13 37.85 40.08 44.82 46.21 47.98 49.76 50.66 52.85 50.26 51.04 50.09 49.20 48.69 47.78 48.48 49.32 49.42 49.40 49.29 50.11 49.41 49.14 48.60 48.79 48.59 49.19 49.40 49.48 48.96 48.79 48.78 48.12
45.03 39.64 41.02 42.58 43.52 43.87 42.44 41.74 43.77 40.82 41.19 37.22 39.78 40.88 43.27 44.86 47.03 49.42 51.18 51.28 50.26 49.31 49.16 48.82 47.89 47.15 47.47 47.64 47.71 48.46 48.18 48.52 48.64 48.62 48.06 47.83 48.33 48.99 48.14 47.56 47.05 47.11 46.85 46.83
46.35 39.22 40.00 39.53 42.53 43.55 41.62 43.60 44.84 43.89 43.39 43.43 42.17 41.66 46.94 47.85 49.14 49.74 50.94 49.52 48.37 48.96 48.96 49.05 48.13 47.76 46.93 46.73 46.54 47.23 47.10 47.08 47.30 47.08 46.99 48.48 48.02 47.63 46.46 45.92 45.36 45.02 44.85 44.56
42.31 42.15 38.08 33.91 40.88 40.78 37.65 41.89 43.18 44.30 45.39 43.05 40.29 44.01 47.61 47.14 46.71 46.86 48.85 49.19 47.47 47.20 46.91 45.90 45.93 45.70 45.43 44.97 46.18 44.86 44.77 45.51 45.34 45.75 47.40 47.49 46.23 45.52 44.82 45.29 44.82 43.91 42.85 42.82
43.07 41.59 37.35 35.12 39.15 31.55 40.71 46.64 47.18 45.39 46.12 47.31 47.07 46.44 45.53 44.50 45.11 46.13 46.80 45.48 44.58 44.41 43.70 43.40 43.27 43.28 44.46 43.95 43.66 43.34 44.01 43.95 44.32 44.15 44.64 44.71 44.06 43.89 44.02 43.82 43.29 43.04 42.86 42.86
44.51 43.05 37.80 34.45 33.50 38.87 41.70 44.47 43.56 41.39 41.38 47.57 44.74 44.28 44.32 45.04 44.26 42.66 45.89 45.19 43.52 42.65 42.14 41.68 42.56 42.86 41.70 41.32 41.57 41.61 41.35 41.58 42.29 41.96 41.98 42.99 43.33 43.41 43.61 42.87 42.64 42.55 42.83 43.45
44.13 43.22 38.57 36.42 31.99 30.31 40.22 46.05 49.18 46.32 35.67 44.96 44.80 44.48 44.15 44.64 36.53 37.66 42.65 42.95 41.80 41.59 40.58 39.89 41.00 40.33 39.35 39.43 39.53 38.97 39.20 40.03 38.88 40.65 40.95 42.44 44.40 44.33 44.33 44.08 42.30 42.84 43.44 45.21
35.68 37.95 36.11 35.81 32.71 37.69 44.84 48.21 49.69 34.74 37.28 44.45 43.33 42.68 41.81 39.05 39.41 40.52 41.57 40.19 39.86 38.83 38.35 38.38 37.96 36.70 37.12 37.21 37.48 36.80 37.10 37.01 38.45 39.72 40.96 42.83 44.16 44.42 43.97 41.83 44.20 45.32 45.98 45.91
35.24 35.10 35.37 35.38 32.14 30.72 47.66 45.88 39.39 41.56 43.54 43.28 41.59 40.33 39.11 39.16 39.74 38.60 37.84 37.29 36.61 35.93 36.47 36.57 35.54 35.92 36.93 35.87 35.52 34.62 35.84 37.37 38.43 39.56 40.87 42.51 43.38 43.69 43.06 44.12 45.22 45.79 45.00 44.00
37.72 41.18 37.89 38.78 38.27 43.56 44.98 43.56 45.11 43.79 40.41 40.66 39.77 39.72 39.49 37.96 36.61 36.16 35.06 34.77 34.65 35.10 35.26 35.97 34.80 34.18 34.54 35.01 35.43 34.31 36.04 37.23 37.36 38.00 39.32 40.81 41.84 41.56 42.77 43.17 45.11 44.77 45.11 45.04
43.68 45.50 40.37 40.30 41.49 41.44 42.11 43.80 43.36 42.27 40.78 41.17 40.80 39.19 38.37 35.77 35.85 34.21 33.84 33.64 33.27 33.47 33.37 33.91 32.81 32.03 31.93 33.80 35.10 36.04 35.64 35.43 35.26 35.33 36.59 39.14 38.92 38.81 39.36 42.94 44.82 44.89 44.97 44.84
43.21 43.66 40.40 39.39 40.75 41.15 41.95 41.85 41.46 41.19 41.73 41.07 40.53 39.38 37.50 36.14 34.33 33.53 32.80 33.01 32.85 32.62 32.85 32.84 32.01 32.17 32.31 33.86 34.11 35.95 35.47 35.26 33.91 34.51 35.61 36.28 37.06 36.49 38.17 40.55 44.02 44.94 46.29 45.87
43.61 40.83 37.89 36.60 41.00 39.91 40.58 42.09 42.43 40.95 40.28 40.15 38.84 37.53 37.68 36.05 33.96 33.06 32.56 32.87 32.70 32.52 32.68 32.43 32.51 32.72 32.94 33.87 34.66 36.32 36.43 36.30 34.81 34.17 34.51 35.54 35.76 36.49 38.46 40.00 42.48 42.89 41.83 41.48
MSLP
1002.31 1002.68 1002.12 1002.64 1003.15 1003.29 1003.09 1002.47 1001.72 1000.92 1000.27 1000.59 1000.64 1000.71 1000.74 1000.65 1000.65 1000.82 1000.90 1001.18 1000.95 1001.56 1001.96 1002.42 1002.35 1002.88 1003.89 1004.89 1005.36 1005.77 1006.38 1006.70 1006.63 1007.06 1008.21 1009.04 1007.96 1011.10 1008.47 1006.40 1007.17 1007.29 1007.26 1008.28
1001.72 1000.74 1001.92 1002.34 1002.44 1002.45 1002.16 1001.81 1001.04 1000.27 999.86 999.91 1000.23 1000.42 1000.34 1000.20 1000.29 1000.39 1000.55 1000.60 1000.81 1000.99 1001.66 1002.18 1002.56 1002.94 1003.55 1004.18 1004.64 1005.37 1006.07 1006.56 1006.96 1007.28 1007.51 1008.83 1009.98 1010.26 1009.55 1007.78 1007.01 1006.60 1006.77 1008.17
1000.02 999.66 1001.19 1001.58 1001.33 1001.41 1001.18 1001.00 1000.70 1000.42 999.57 999.46 1000.13 1000.54 1000.31 999.85 999.63 999.68 999.83 999.95 1000.17 1000.66 1001.22 1001.78 1002.51 1002.80 1003.39 1003.89 1004.35 1004.80 1005.24 1005.84 1006.59 1007.55 1008.06 1008.80 1009.50 1010.69 1011.37 1008.90 1007.18 1007.05 1007.31 1007.89
1000.08 1000.03 999.89 1000.07 999.96 1000.13 1000.13 1000.12 1000.17 1000.10 1000.15 1000.48 1000.27 1001.08 1000.72 1000.06 999.75 999.64 999.65 999.89 999.96 1000.06 1000.22 1000.72 1001.65 1002.71 1003.00 1003.84 1004.04 1004.44 1004.73 1004.92 1005.64 1006.53 1007.50 1008.26 1008.10 1007.47 1007.66 1006.90 1006.39 1007.75 1007.92 1008.23
998.54 998.68 998.71 998.55 998.56 998.85 999.00 999.10 999.79 1000.16 1000.64 1000.96 1000.96 1001.56 1000.73 1000.00 1000.04 1000.09 1000.26 1000.37 1000.44 1000.27 999.93 1000.70 1001.11 1001.38 1001.84 1002.60 1003.59 1004.09 1004.30 1004.86 1004.93 1005.50 1005.67 1006.08 1006.34 1005.89 1006.31 1007.32 1007.12 1006.95 1007.48 1007.59
998.34 997.64 997.46 997.41 997.67 997.77 998.28 998.63 999.53 1000.48 1001.38 1001.41 1001.64 1001.77 1001.14 1000.61 1000.04 1000.38 1000.62 1000.70 1000.79 1000.96 1001.31 1001.24 1001.30 1001.83 1002.39 1003.06 1003.94 1004.68 1004.73 1004.91 1004.87 1005.21 1006.14 1006.69 1007.06 1006.93 1006.94 1007.27 1007.70 1007.87 1007.93 1007.99
997.67 996.95 996.30 995.99 996.69 996.88 997.53 998.53 1000.15 1001.34 1001.65 1001.71 1001.71 1001.72 1000.99 1000.34 1000.22 1000.42 1000.89 1000.95 1000.85 1001.05 1001.49 1001.97 1002.10 1003.15 1003.57 1003.95 1004.56 1004.78 1005.62 1005.96 1006.43 1006.73 1006.95 1007.96 1008.30 1007.61 1007.53 1008.32 1008.16 1008.89 1009.23 1008.97
997.73 996.52 995.39 994.81 995.15 995.87 996.88 998.18 999.68 1000.82 1001.55 1001.91 1001.16 1001.50 1000.96 1000.95 1001.40 1001.47 1001.52 1001.49 1001.26 1001.45 1001.68 1002.67 1003.66 1004.07 1004.47 1005.16 1005.54 1006.05 1007.08 1007.38 1007.65 1007.53 1008.21 1008.24 1008.25 1008.34 1008.84 1008.94 1008.86 1008.86 1008.76 1009.37
997.72 996.60 995.08 994.82 994.47 995.35 996.40 997.41 999.13 1000.70 1001.68 1002.02 1001.95 1002.44 1002.58 1002.67 1002.70 1002.66 1002.93 1003.17 1003.10 1003.08 1003.01 1003.86 1004.97 1004.96 1005.77 1005.92 1006.59 1006.87 1007.84 1008.63 1008.11 1008.22 1007.90 1008.46 1008.25 1008.15 1008.65 1009.08 1009.01 1009.24 1009.53 1009.90
998.73 997.54 995.59 994.79 994.59 994.94 995.74 997.24 999.01 1000.36 1001.95 1002.82 1002.89 1003.32 1004.31 1004.79 1004.80 1004.95 1004.27 1004.20 1004.16 1004.02 1004.43 1004.66 1005.52 1006.41 1006.61 1006.92 1007.21 1007.09 1008.11 1008.45 1008.61 1008.81 1008.84 1008.83 1008.79 1008.67 1008.58 1008.92 1009.41 1009.50 1009.46 1010.09
1000.13 1000.12 998.04 997.18 995.68 995.07 995.91 996.90 998.44 1000.03 1001.81 1003.16 1004.32 1005.79 1006.25 1005.96 1006.18 1006.51 1005.82 1005.53 1005.26 1005.64 1006.45 1006.69 1006.89 1007.15 1007.45 1007.37 1007.48 1007.99 1008.40 1008.73 1008.35 1008.49 1009.07 1009.15 1009.34 1009.42 1009.59 1009.97 1010.32 1010.46 1010.36 1010.14
1000.20 1000.95 1000.15 998.93 997.05 995.99 995.63 996.70 998.15 1000.13 1002.52 1003.67 1005.39 1007.12 1007.20 1006.96 1006.44 1006.70 1007.33 1006.59 1006.32 1006.80 1007.14 1007.74 1008.00 1008.25 1008.68 1008.40 1008.55 1008.89 1009.27 1009.23 1009.13 1009.26 1009.40 1009.52 1009.75 1009.95 1010.44 1010.98 1010.99 1011.02 1011.21 1011.29
1000.18 1000.49 1001.12 1000.23 998.75 996.52 995.90 996.70 997.71 999.74 1001.85 1003.64 1005.39 1007.17 1007.26 1007.36 1007.27 1006.70 1006.74 1007.03 1007.12 1007.22 1007.57 1008.06 1008.39 1008.81 1009.76 1009.86 1009.79 1009.84 1009.72 1009.77 1009.98 1010.19 1010.13 1009.91 1010.32 1010.89 1011.14 1011.45 1011.55 1011.79 1011.92 1011.78
1000.54 1000.04 999.75 999.69 998.46 997.33 996.65 996.97 997.98 999.51 1001.94 1003.30 1004.43 1006.38 1007.25 1007.36 1007.68 1007.69 1007.46 1006.93 1007.60 1007.50 1008.11 1008.73 1009.08 1009.79 1009.98 1010.31 1010.67 1010.87 1010.86 1010.58 1010.63 1010.59 1010.74 1010.89 1011.22 1011.07 1011.55 1012.00 1012.09 1012.07 1012.07 1011.99
1001.07 1000.04 1000.10 999.62 999.02 998.01 997.17 997.31 998.28 999.52 1001.11 1002.27 1003.89 1005.11 1005.99 1006.54 1006.37 1007.94 1008.37 1007.36 1007.31 1007.98 1008.76 1009.24 1010.01 1010.84 1011.03 1011.34 1011.57 1011.47 1011.45 1011.49 1011.56 1011.75 1011.83 1011.63 1011.36 1011.57 1011.84 1012.24 1012.17 1012.18 1011.96 1011.92
1000.26 1000.22 1000.32 1000.32 999.87 999.34 998.84 998.72 998.91 999.76 1001.43 1001.95 1002.67 1004.32 1005.28 1006.45 1007.45 1008.11 1008.88 1008.28 1008.07 1008.97 1009.55 1010.19 1011.05 1011.45 1012.04 1012.29 1012.44 1012.45 1012.47 1012.41 1012.32 1012.26 1012.14 1011.98 1011.86 1011.81 1012.12 1012.25 1012.11 1012.05 1012.00 1011.67
999.95 999.90 1000.69 1001.24 1000.91 1000.79 1000.22 1000.08 1000.54 1000.60 1001.58 1003.58 1003.41 1004.38 1005.96 1007.10 1008.04 1008.54 1009.18 1009.18 1009.58 1010.18 1010.75 1011.58 1012.32 1012.75 1013.03 1013.11 1013.17 1013.39 1013.24 1013.07 1013.01 1012.90 1012.73 1012.66 1012.70 1012.70 1012.71 1012.62 1012.49 1012.23 1011.80 1011.72
999.33 999.74 1000.47 1001.45 1002.05 1001.85 1001.26 1000.60 1001.85 1001.57 1002.15 1002.46 1003.70 1005.48 1006.49 1007.61 1008.57 1008.81 1009.68 1010.52 1011.03 1011.71 1012.38 1013.03 1013.47 1013.75 1014.12 1014.15 1014.15 1014.04 1013.84 1013.80 1013.71 1013.54 1013.46 1013.34 1013.15 1013.08 1012.99 1012.94 1012.60 1012.40 1012.10 1011.69
998.20 999.29 1000.68 1001.62 1002.03 1001.79 1002.09 1002.41 1002.41 1003.16 1003.97 1003.23 1004.64 1006.21 1007.21 1008.33 1008.96 1010.28 1011.05 1011.78 1012.68 1013.24 1013.88 1014.38 1014.57 1014.86 1015.05 1015.12 1015.12 1014.87 1014.72 1014.61 1014.43 1014.40 1014.14 1013.87 1013.54 1013.26 1013.14 1012.95 1012.53 1012.15 1011.78 1011.31
999.25 999.89 999.97 1001.58 1002.28 1002.29 1001.32 1001.57 1001.37 1002.51 1005.06 1006.05 1006.19 1007.36 1007.99 1008.77 1010.66 1012.44 1012.67 1013.29 1014.02 1014.57 1015.02 1015.37 1015.44 1015.68 1015.70 1015.91 1015.70 1015.50 1015.41 1015.21 1015.25 1014.95 1014.65 1014.18 1013.57 1013.31 1013.10 1012.73 1012.40 1011.98 1011.54 1010.91
1000.39 1000.83 1001.53 1001.89 1002.91 1003.37 1001.94 1001.93 1001.67 1003.59 1007.52 1007.37 1007.66 1008.55 1009.44 1010.67 1012.25 1013.39 1013.78 1014.54 1015.22 1015.81 1016.15 1016.30 1016.31 1016.48 1016.69 1016.61 1016.38 1016.31 1016.13 1016.00 1015.84 1015.38 1014.76 1014.09 1013.60 1013.24 1012.87 1012.67 1012.07 1011.58 1011.11 1010.73
1001.93 1001.98 1002.89 1002.81 1003.60 1004.40 1002.83 1002.94 1004.25 1006.95 1007.52 1008.21 1009.33 1010.25 1011.13 1012.36 1013.44 1014.38 1015.16 1015.80 1016.33 1016.70 1016.91 1017.11 1017.21 1017.27 1017.30 1017.31 1017.18 1016.96 1016.69 1016.44 1015.87 1015.28 1014.73 1014.14 1013.67 1013.32 1012.93 1012.39 1011.77 1011.37 1010.97 1010.46
1002.20 1002.39 1002.72 1003.31 1004.94 1005.12 1004.59 1005.54 1006.53 1007.29 1008.51 1009.91 1010.77 1011.94 1012.66 1013.86 1015.07 1015.89 1016.48 1017.00 1017.43 1017.74 1017.91 1017.93 1017.97 1018.04 1018.05 1017.98 1017.76 1017.47 1017.04 1016.54 1016.07 1015.48 1014.91 1014.33 1013.87 1013.37 1012.92 1012.35 1011.76 1011.28 1010.69 1010.31
1002.65 1002.39 1003.48 1004.16 1006.46 1006.35 1006.67 1007.41 1008.04 1008.87 1010.14 1011.31 1012.33 1013.20 1013.97 1015.14 1016.15 1017.06 1017.72 1018.18 1018.48 1018.67 1018.75 1018.85 1018.87 1018.82 1018.79 1018.63 1018.26 1017.85 1017.39 1017.04 1016.50 1015.91 1015.31 1014.78 1014.39 1013.83 1013.32 1012.45 1011.76 1011.20 1010.68 1010.30
1003.40 1003.79 1005.07 1006.19 1007.08 1007.41 1008.50 1008.91 1009.46 1010.34 1011.33 1012.21 1013.33 1014.12 1015.10 1016.24 1017.41 1018.18 1018.73 1019.01 1019.30 1019.51 1019.62 1019.70 1019.63 1019.49 1019.28 1018.97 1018.56 1018.12 1017.68 1017.17 1016.76 1016.25 1015.71 1015.26 1014.76 1014.16 1013.50 1012.65 1011.76 1011.20 1010.75 1010.55
1004.27 1004.86 1005.63 1006.76 1007.31 1008.04 1009.27 1009.87 1010.33 1011.23 1012.43 1013.30 1014.23 1015.20 1016.24 1017.18 1018.23 1019.03 1019.49 1019.84 1020.05 1020.25 1020.31 1020.24 1020.12 1019.83 1019.59 1019.15 1018.70 1018.19 1017.67 1017.02 1016.72 1016.28 1015.94 1015.57 1015.03 1014.32 1013.69 1013.01 1011.90 1011.15 1010.74 1010.12
Wind_Speed
23 12 16 18 16 14 15 16 13 18 15 11 16 9 10 12 10 10 9 9 8 11 9 15 16 11 10 9 8 8 10 6 5 3 6 5 5 3 18 7 8 13 10 6
12 24 17 16 19 18 19 19 19 12 19 12 10 11 10 11 11 15 15 12 10 7 5 12 9 12 13 12 12 10 11 13 8 7 3 3 6 4 6 18 7 10 10 9
24 14 20 21 19 21 20 19 16 10 8 4 5 5 5 7 8 9 10 11 11 10 10 8 15 15 11 11 10 11 14 18 11 8 8 6 2 6 11 15 2 4 9 12
22 19 22 24 22 20 19 20 20 13 6 4 4 6 9 8 12 8 11 10 11 10 10 7 13 11 9 9 9 9 8 9 14 18 18 20 17 13 9 5 2 5 4 8
23 22 26 23 24 21 17 16 16 10 6 1 8 1 8 5 5 3 6 8 9 9 8 6 16 21 20 15 14 11 10 9 8 4 3 3 3 2 3 0 6 4 6 5
26 17 20 23 21 24 19 8 7 9 4 5 6 6 7 7 8 5 4 6 8 9 8 8 5 17 5 8 7 7 7 5 7 7 6 6 6 4 6 5 4 3 2 3
19 27 21 20 19 21 12 7 2 1 4 6 11 10 12 5 7 8 8 8 6 10 8 9 12 13 11 10 8 3 7 8 13 11 11 7 5 9 8 6 7 7 3 3
15 16 24 19 19 9 10 10 7 9 6 11 13 9 8 8 9 7 6 5 6 9 10 11 14 16 16 15 16 17 15 12 9 9 7 6 7 7 5 6 6 6 6 4
12 20 13 20 16 10 9 10 8 3 3 2 3 5 7 8 8 8 8 9 10 12 15 16 14 13 14 17 16 16 13 7 10 8 11 10 9 11 9 8 6 5 6 5
6 6 15 15 12 14 14 10 10 3 6 5 1 6 1 6 8 15 6 12 13 16 15 15 14 12 10 9 9 12 9 7 8 8 6 6 8 9 9 8 8 8 7 4
5 3 6 7 4 11 7 10 6 5 5 7 5 4 9 4 7 12 15 11 12 11 8 8 10 8 7 9 8 8 7 6 7 7 6 7 7 8 8 7 7 7 7 8
5 5 4 4 15 15 9 8 7 6 1 4 5 2 5 3 11 18 9 8 7 9 9 7 7 8 7 8 8 8 7 7 7 7 7 8 8 8 8 6 6 6 6 7
7 6 6 10 11 15 9 8 7 9 4 6 6 1 3 8 8 17 15 1 2 10 9 8 9 9 8 7 8 8 8 8 8 8 7 8 8 7 6 5 6 7 6 6
8 5 7 7 2 3 13 10 11 9 5 5 4 10 8 9 11 4 4 3 5 14 12 10 11 9 9 9 9 9 9 10 9 9 8 7 5 4 6 6 7 6 6 6
6 6 7 2 9 7 3 7 10 7 6 6 12 17 12 10 17 8 8 2 15 15 13 11 10 9 9 10 9 9 8 8 7 7 6 5 5 7 6 5 5 5 5 5
8 6 3 3 6 6 3 8 8 11 3 9 10 12 10 14 17 14 9 10 16 15 14 14 14 13 11 8 7 7 7 7 7 6 6 6 6 6 6 5 5 5 5 6
12 6 5 1 5 7 5 4 7 14 14 11 13 9 15 18 15 14 10 11 15 14 14 14 12 10 7 7 9 8 7 7 7 7 6 7 7 7 6 6 5 5 7 6
6 9 4 8 16 6 1 9 9 11 14 17 18 21 21 21 19 18 16 13 13 14 14 12 8 7 10 10 11 8 9 9 9 7 8 9 8 7 6 6 7 6 5 6
6 7 5 6 3 8 13 15 18 16 16 11 26 24 23 20 20 15 13 15 14 13 11 7 7 10 10 10 8 7 7 7 6 9 9 9 8 6 7 7 7 6 6 7
10 6 8 10 6 4 3 18 18 12 14 12 17 15 20 13 12 7 13 14 13 14 12 11 11 10 10 10 9 7 7 7 9 9 9 9 9 8 8 9 7 5 6 10
6 4 5 6 6 2 6 11 10 10 5 13 15 16 17 17 10 10 14 15 14 13 13 11 10 8 9 9 9 9 8 8 9 9 9 8 8 7 7 7 6 9 9 9
4 4 2 0 6 1 7 10 9 8 16 17 17 16 18 14 15 16 15 13 13 12 12 11 9 9 10 10 9 8 8 9 8 8 9 9 8 7 7 8 8 6 8 8
3 4 3 6 8 13 21 18 17 19 19 17 18 15 15 16 15 13 12 11 11 12 11 11 10 10 10 10 9 8 9 10 11 10 10 9 9 8 9 10 5 7 8 7
8 9 9 9 14 18 20 20 20 19 18 17 16 15 16 15 13 12 10 9 9 10 10 9 10 10 9 8 9 8 9 10 10 10 10 9 8 10 8 8 5 6 7 8
3 5 14 20 18 19 17 17 18 18 17 18 17 16 15 14 12 10 10 10 9 9 8 8 8 7 8 8 9 8 9 8 8 8 8 8 7 7 9 9 6 7 8 6
5 10 9 8 7 16 14 12 14 16 16 17 17 16 15 13 12 10 10 9 7 7 6 6 7 7 8 8 8 7 9 7 8 7 6 6 7 7 7 8 8 8 9 13
Wind_Direction
208 210 214 208 224 232 244 245 226 229 238 200 230 222 212 213 220 235 244 244 267 236 209 183 173 152 114 137 151 157 141 166 150 117 201 196 88 295 299 297 189 184 175 152
191 219 212 219 222 227 240 247 253 261 226 202 206 224 223 223 210 209 218 234 238 257 208 177 168 151 155 161 154 154 161 169 183 184 146 95 116 241 237 271 222 163 133 137
206 204 207 219 221 220 228 242 252 246 289 190 177 269 257 260 218 215 207 203 224 214 234 188 175 174 165 158 161 159 157 170 175 165 154 123 143 140 273 251 296 96 143 155
224 226 203 215 226 213 226 225 242 258 266 225 159 242 252 238 243 245 240 210 214 228 220 203 157 172 164 178 161 152 157 149 165 169 167 186 197 174 180 186 168 156 163 189
221 198 223 211 218 226 227 214 213 244 261 200 292 93 257 260 185 174 39 64 12 261 216 173 174 178 195 172 159 164 143 137 143 127 81 108 122 346 71 291 176 183 181 193
224 222 217 227 212 222 232 218 182 200 199 246 227 230 261 240 214 116 78 76 67 71 59 73 73 191 187 64 113 122 105 115 123 122 103 79 55 77 55 54 55 50 71 46
224 226 231 224 219 209 208 128 224 240 213 214 223 225 227 179 133 142 140 129 114 101 86 72 65 61 49 49 52 88 108 70 60 54 63 63 75 64 78 81 72 71 51 41
228 228 216 223 224 179 205 164 157 179 171 228 232 248 273 105 82 90 97 81 31 92 105 85 72 80 70 65 59 49 37 70 83 79 68 71 63 74 69 60 54 60 58 35
213 247 226 227 207 175 191 200 189 155 223 100 195 145 65 88 91 84 71 25 71 66 72 82 75 64 81 81 70 69 43 32 40 55 53 39 47 57 54 39 43 63 68 20
313 302 231 217 192 225 185 160 209 201 178 220 282 78 249 39 6 36 56 82 61 54 60 68 73 78 80 79 82 90 80 87 71 64 61 59 40 40 35 35 28 23 17 48
281 131 307 334 253 192 186 190 186 127 124 167 127 127 359 40 73 54 25 9 90 78 64 73 89 83 80 87 89 89 103 68 80 81 77 66 54 47 42 36 24 13 5 2
189 146 243 287 294 301 191 179 144 123 250 69 104 90 332 49 119 88 39 343 99 116 121 117 95 84 74 80 77 84 67 57 43 52 65 60 52 44 41 23 15 10 354 352
198 169 113 317 295 268 196 189 145 105 93 166 122 204 66 94 100 133 163 196 185 121 108 94 92 86 74 56 59 57 51 48 33 27 36 48 49 36 18 359 14 28 23 9
327 161 143 190 147 229 194 180 147 122 117 143 151 151 162 115 108 116 352 327 235 98 87 82 66 64 59 51 56 46 42 42 30 25 22 27 16 20 34 47 35 30 15 5
238 171 206 193 22 344 26 175 122 118 147 140 163 156 173 159 118 83 31 215 114 104 93 85 78 71 59 48 40 30 34 32 32 17 355 347 11 60 53 36 26 11 9 353
217 164 81 114 38 346 356 15 133 121 64 6 150 126 157 132 122 133 144 83 79 77 71 69 67 61 51 48 35 33 32 24 15 355 345 18 29 32 29 13 353 4 342 317
189 131 121 211 120 341 313 77 7 90 110 196 98 108 136 114 99 93 119 106 84 73 69 66 63 56 41 28 32 34 23 16 8 358 8 25 29 20 4 351 357 345 333 314
231 131 150 133 156 154 220 85 56 64 114 107 103 101 101 101 92 78 73 73 65 64 65 56 46 39 41 41 31 19 17 14 4 2 13 20 15 354 334 351 335 320 298 307
43 88 102 98 73 125 120 147 113 100 52 83 116 111 105 97 86 69 75 66 69 65 63 54 43 53 44 36 22 15 13 4 358 14 4 356 338 334 350 328 316 319 321 312
78 79 108 157 110 99 41 141 128 96 66 48 79 109 126 102 83 71 71 70 62 58 47 36 33 45 35 29 18 16 10 13 9 356 344 326 329 335 329 318 312 299 301 304
25 22 73 56 96 6 337 84 172 69 147 94 82 81 83 81 88 91 71 59 55 49 43 29 28 28 40 23 17 12 360 10 341 322 311 321 333 329 322 309 306 310 310 314
94 76 77 199 91 71 329 30 88 125 81 81 76 75 79 77 69 64 58 54 48 40 32 27 23 24 25 20 12 357 354 333 319 321 324 333 338 334 322 309 309 315 319 314
81 123 150 79 88 81 73 93 89 88 84 78 84 75 77 76 69 61 54 45 40 36 29 26 26 19 13 8 359 349 342 351 349 342 343 343 344 327 330 313 313 321 333 324
57 52 96 85 78 83 84 84 85 86 88 87 86 86 81 78 71 67 59 49 41 36 29 27 20 15 7 354 354 352 352 351 343 341 337 338 343 334 321 314 309 320 323 327
53 95 102 98 98 88 87 93 97 95 92 88 85 83 86 88 78 73 62 50 45 39 34 26 19 10 6 359 355 348 341 339 344 338 335 347 330 321 317 313 301 320 317 298
72 116 118 124 108 112 109 103 100 99 101 97 92 86 81 82 88 80 68 58 50 41 28 28 21 17 8 357 340 335 332 352 349 347 341 342 327 324 326 330 321 309 276 306